Wind_Speed
30 31 32 33 35 36 34 31 29 29 28 28 28 27 26 26 25 26 25 25 24 23 22 22 21 20 19 18 18 17 16 15 14 13 13 12 12 11 10 9 8 8 7 7 6 7 7 8 8
32 33 34 35 37 37 35 32 30 30 30 30 30 29 28 28 27 27 26 26 26 25 24 24 23 22 21 20 19 19 18 17 16 15 14 14 13 12 11 10 10 9 9 8 8 8 9 9 9
34 35 37 38 39 37 35 33 32 32 32 31 31 31 30 29 29 28 27 27 27 27 26 26 25 24 23 22 21 20 19 18 18 17 16 15 14 14 13 12 11 11 10 10 10 10 10 10 10
35 36 39 40 39 36 36 35 34 33 33 33 33 32 31 30 30 29 29 29 28 28 28 27 26 26 25 24 23 22 21 20 19 18 18 16 16 15 14 14 13 12 12 12 12 12 12 12 11
33 36 39 40 39 37 37 36 35 35 34 34 35 34 33 32 31 31 31 30 30 29 29 29 28 27 26 25 25 24 23 22 21 20 19 18 17 17 16 15 14 14 14 13 13 13 13 13 13
33 35 38 39 38 37 36 36 36 37 36 36 36 36 35 34 33 33 33 32 32 31 31 31 31 29 29 28 26 26 24 24 23 22 21 20 19 18 17 17 16 16 15 15 14 14 14 14 14
32 34 36 37 38 38 37 36 37 37 37 37 37 37 36 36 35 35 34 34 34 34 33 33 32 32 31 29 29 28 26 26 25 24 23 22 21 20 19 18 18 17 17 16 16 16 15 16 16
32 34 34 35 37 38 37 36 37 37 37 37 38 37 36 36 36 36 36 36 36 36 35 35 34 33 33 32 30 29 28 28 27 26 24 23 23 21 20 20 19 19 18 18 17 17 17 17 17
32 34 34 34 35 36 36 36 36 36 37 36 37 37 36 36 36 36 37 37 37 37 37 37 36 35 34 34 32 31 30 29 29 27 26 25 24 23 22 21 20 20 20 19 18 19 19 19 19
31 33 32 33 33 33 34 35 35 35 36 36 35 36 36 35 35 36 36 37 38 38 38 38 38 37 36 35 34 33 32 30 29 29 28 27 26 25 24 23 22 21 21 20 20 20 20 20 20
27 30 30 31 30 31 33 34 34 34 34 35 35 34 35 35 36 36 37 37 38 39 39 39 39 39 37 36 36 35 34 32 30 30 30 29 28 27 26 25 24 24 23 22 22 22 22 22 22
24 26 28 29 29 29 30 32 33 32 33 33 34 34 35 35 36 37 38 38 38 38 39 40 40 39 38 37 37 36 35 34 32 30 30 30 29 29 28 27 26 25 24 24 24 24 24 24 24
23 24 25 27 29 28 29 31 32 30 31 32 33 33 34 34 35 37 38 39 39 39 39 39 39 40 39 38 38 36 37 37 34 33 31 30 30 30 29 28 27 27 26 26 25 25 25 26 25
21 22 24 25 27 28 28 29 31 29 30 31 32 32 33 33 34 37 39 39 39 39 39 39 39 38 39 39 39 38 37 37 36 36 33 31 31 31 31 29 28 28 28 28 27 27 27 27 27
20 21 22 23 25 26 27 28 28 27 29 30 30 31 32 33 34 35 37 38 39 40 40 40 40 39 39 40 39 39 38 38 38 37 36 34 32 31 31 30 30 29 29 29 29 29 29 29 29
18 20 21 23 24 25 26 26 27 27 28 29 29 30 30 32 33 34 35 37 39 40 40 40 40 40 39 40 40 39 39 39 38 38 37 36 35 32 31 32 32 31 31 31 30 30 30 30 30
16 18 20 21 22 24 25 25 25 25 27 28 29 29 29 31 32 33 34 35 37 39 39 39 40 40 41 40 40 40 40 40 39 39 38 37 36 34 33 33 33 33 33 32 31 31 31 31 31
15 17 18 19 20 21 22 23 23 24 25 27 28 29 30 31 31 32 34 34 36 38 39 38 39 40 41 42 41 40 40 40 40 39 38 37 37 36 35 34 33 34 34 34 33 33 33 32 32
13 15 16 17 19 20 21 22 22 23 24 25 27 28 29 30 31 32 33 35 34 35 38 38 38 38 40 41 41 40 41 41 41 40 39 38 37 37 36 35 34 34 34 34 34 34 34 34 33
11 12 13 14 17 19 20 21 22 23 24 25 26 27 28 30 31 32 33 34 35 34 36 39 38 38 39 40 40 40 41 41 41 41 40 40 39 37 36 36 36 34 34 35 36 35 34 34 34
10 10 11 12 13 16 18 19 21 22 24 26 26 27 27 29 31 31 32 33 34 34 35 36 38 38 38 38 40 40 40 41 41 41 42 41 41 40 39 37 37 37 36 34 35 36 35 34 34
10 9 10 11 12 13 16 18 20 21 23 25 27 27 28 29 31 32 32 33 34 34 34 35 37 37 36 37 39 40 40 41 42 41 41 42 43 41 40 38 37 37 37 36 35 35 36 35 34
9 8 9 10 12 13 15 17 20 22 22 24 26 27 27 28 31 32 32 33 34 35 35 35 35 36 37 38 38 39 39 39 40 41 41 42 42 41 40 40 39 38 38 38 37 36 36 36 35
9 10 9 10 12 14 15 17 18 19 20 21 24 26 27 28 31 33 33 33 34 35 35 35 35 35 35 36 38 38 39 39 40 40 40 40 41 41 41 41 41 40 39 39 38 36 36 36 36
10 10 10 11 12 14 15 18 18 19 20 21 23 24 25 27 29 31 33 33 34 35 35 35 35 35 35 35 36 38 38 39 40 39 39 39 40 41 41 40 40 40 39 38 37 38 37 36 36
11 11 12 14 14 15 15 18 18 19 19 21 22 23 25 26 28 30 32 33 33 34 34 34 35 34 35 37 36 37 39 39 39 39 38 39 40 40 40 40 40 40 39 38 37 38 37 36 36
12 12 12 14 15 16 17 19 18 18 19 20 21 23 24 26 28 29 31 32 33 34 35 35 35 34 34 37 38 37 37 38 39 39 39 39 40 41 40 41 40 39 39 38 38 37 37 37 35
14 14 14 14 15 17 18 19 18 18 19 20 21 22 23 25 27 29 30 31 32 33 34 36 36 35 35 37 38 38 37 38 38 39 39 39 40 41 41 41 42 40 40 38 36 37 38 37 36
15 15 15 16 16 18 19 19 19 19 19 20 21 22 23 24 25 27 29 31 31 32 32 33 35 35 35 36 38 39 38 38 38 39 39 39 40 40 41 41 41 41 40 39 38 37 38 38 38
16 16 16 17 18 20 21 21 20 20 21 21 22 23 24 25 26 27 28 30 31 32 32 31 33 34 35 36 38 40 40 40 39 39 40 40 41 41 42 42 41 40 40 40 39 38 38 38 37
Wind_Direction
249 247 245 243 243 242 243 243 244 243 241 240 240 239 238 236 235 235 234 233 232 232 231 230 229 227 226 226 226 226 226 228 229 230 228 227 227 227 230 235 240 246 252 260 271 280 289 295 297
249 247 245 244 243 244 243 244 244 244 243 241 241 240 238 236 235 235 235 234 233 232 232 231 230 229 227 226 227 227 228 229 231 232 232 229 228 230 234 238 244 249 255 261 270 279 287 292 295
249 247 246 245 244 244 244 244 245 244 243 242 241 241 239 237 236 234 233 234 233 232 232 232 230 229 229 229 229 229 229 230 231 232 232 232 232 234 237 240 245 252 257 263 270 277 283 288 292
249 246 245 245 245 244 245 245 244 245 244 243 242 241 240 239 237 235 233 233 234 233 232 231 230 229 229 230 230 231 230 231 231 232 233 235 237 238 239 242 247 254 259 263 269 274 279 285 289
248 245 245 245 245 244 244 244 243 244 244 243 242 242 240 239 237 235 233 233 233 232 232 231 230 230 230 230 231 231 231 230 231 233 235 237 238 240 242 244 249 255 259 265 269 273 277 282 286
246 245 245 246 245 244 243 243 242 242 243 242 242 241 240 239 237 236 234 232 232 231 231 231 231 230 230 230 232 233 232 231 232 234 235 237 240 241 243 246 250 255 259 264 269 272 275 279 284
245 246 246 246 245 244 243 242 241 241 242 242 241 241 239 238 237 235 234 232 231 231 230 230 231 231 231 232 232 233 233 233 234 234 236 237 239 241 244 247 251 255 259 263 268 270 273 277 281
244 246 246 246 245 244 243 242 241 240 240 240 240 240 238 237 236 235 233 232 231 231 230 230 231 231 232 233 233 234 234 235 235 235 237 239 240 242 245 249 252 255 259 262 266 269 272 275 278
246 246 247 247 247 245 243 241 241 240 239 237 238 238 237 235 234 234 233 232 231 230 230 231 232 232 232 233 234 234 234 234 235 236 238 240 242 243 246 249 252 255 258 261 266 268 271 275 278
248 247 247 247 247 244 241 240 239 238 237 236 236 237 236 234 233 232 231 230 230 230 229 230 232 233 233 233 234 234 234 234 235 237 239 240 241 244 246 249 253 255 258 261 265 268 270 274 278
250 248 247 246 247 243 240 237 237 238 236 234 235 235 235 234 232 230 229 229 229 229 229 229 231 233 233 234 234 233 234 234 235 238 239 240 242 244 246 249 253 256 258 262 265 268 271 274 277
252 251 247 245 244 242 238 236 235 236 236 234 234 234 233 233 231 229 229 229 228 229 229 229 231 233 234 235 234 234 234 234 236 237 239 240 241 244 246 249 253 256 258 261 265 268 271 274 277
253 251 248 244 243 241 239 236 234 235 235 234 233 234 231 232 231 229 228 228 228 229 229 230 231 233 235 236 236 235 236 237 237 239 240 241 242 243 245 248 252 255 258 261 264 268 271 273 276
253 250 246 243 241 239 238 236 234 234 235 233 232 233 231 230 229 228 228 227 227 228 230 231 232 233 235 236 236 237 237 238 238 239 241 241 243 244 245 248 252 255 258 262 265 268 270 272 275
252 251 247 242 239 239 240 236 233 232 234 232 231 232 231 229 229 229 228 228 228 228 229 231 232 234 235 236 236 236 237 238 239 241 241 242 244 246 248 249 253 256 260 262 265 268 270 272 274
253 251 247 241 239 238 238 236 233 231 232 231 230 231 230 229 228 229 228 228 228 228 229 231 232 234 235 235 236 236 237 238 240 241 243 243 244 246 248 250 253 256 260 263 265 267 270 273 274
257 249 246 243 240 238 237 237 234 232 233 232 230 231 230 229 228 228 227 227 227 228 229 232 234 234 235 234 235 235 237 238 240 242 243 245 246 247 249 252 254 257 260 263 265 268 271 273 274
259 252 248 243 238 237 237 236 235 234 233 233 232 232 232 231 230 230 228 228 229 228 229 232 234 235 235 235 236 236 236 238 240 242 243 245 247 249 252 254 256 258 260 263 266 269 271 273 274
260 256 251 243 238 235 233 232 233 234 234 233 231 232 234 233 232 231 230 229 230 230 230 230 233 234 235 234 236 237 237 238 240 241 243 245 247 250 253 256 257 258 261 263 266 269 270 271 273
258 253 249 241 237 234 231 231 233 234 233 231 231 233 234 233 233 234 233 232 232 231 232 234 234 235 235 235 236 237 239 240 241 242 243 246 248 250 253 255 257 259 262 263 265 268 270 270 271
254 254 251 242 237 236 235 234 234 234 235 236 235 235 237 235 233 234 235 234 233 233 233 234 233 236 237 238 237 239 240 241 242 243 244 246 249 250 253 255 257 258 261 265 265 265 267 269 270
256 253 251 244 239 243 242 242 238 237 237 238 238 237 238 237 235 235 236 236 235 235 235 235 235 236 238 239 239 240 242 242 242 245 246 246 248 251 254 255 257 258 259 261 264 265 266 268 269
258 254 251 246 243 246 248 250 245 244 240 240 240 239 240 239 236 235 237 238 238 238 238 239 238 238 238 240 241 241 242 244 243 245 247 248 249 251 254 257 256 258 260 261 263 264 265 266 268
264 260 251 252 255 256 254 255 253 248 245 244 242 241 241 238 236 236 236 238 239 240 240 240 240 240 239 240 241 243 244 245 246 246 247 249 250 252 254 257 258 259 261 263 264 265 265 265 269
265 264 261 261 259 262 263 262 261 254 251 249 246 243 242 239 237 236 237 239 241 241 241 241 242 243 242 242 243 245 246 247 248 249 250 250 251 253 254 257 260 261 263 265 266 265 267 269 269
267 267 271 270 267 268 268 270 268 262 257 253 250 248 246 245 244 241 239 239 241 241 243 242 243 244 244 243 244 246 248 248 249 250 252 252 252 254 256 258 261 261 263 265 266 265 267 269 270
272 272 275 276 273 273 272 275 271 268 261 255 251 250 248 246 245 245 244 242 241 243 244 244 244 245 246 246 246 246 249 250 250 251 253 254 254 255 256 257 259 262 264 266 265 265 266 268 269
273 272 276 276 278 277 277 277 273 269 262 257 252 251 250 249 248 247 246 244 242 243 245 245 246 246 247 247 246 247 250 251 252 254 255 255 256 256 257 259 260 262 265 264 264 266 267 269 270
277 272 272 275 276 277 278 275 275 267 263 259 256 254 252 251 249 248 246 245 244 245 246 246 247 247 248 249 248 249 250 252 254 255 256 256 257 257 259 260 261 262 264 265 266 268 269 269 269
283 279 273 275 278 278 278 278 276 270 265 262 260 257 255 254 252 250 247 247 247 247 248 249 248 249 250 251 251 252 252 254 256 257 257 257 258 259 261 261 262 262 264 266 266 267 268 269 269
Height
5817 5819 5820 5822 5824 5825 5829 5833 5837 5839 5841 5843 5845 5847 5849 5852 5854 5857 5858 5858 5860 5861 5863 5864 5866 5868 5869 5870 5872 5873 5874 5875 5876 5876 5877 5877 5878 5878 5879 5879 5879 5879 5879 5879 5878 5878 5877 5876 5876
5809 5811 5813 5814 5816 5819 5824 5828 5831 5833 5835 5837 5839 5841 5843 5846 5848 5850 5852 5854 5856 5857 5859 5861 5863 5864 5866 5867 5869 5870 5871 5872 5873 5874 5875 5875 5876 5876 5877 5877 5877 5877 5877 5877 5876 5876 5875 5875 5874
5801 5802 5804 5805 5808 5813 5818 5822 5825 5826 5828 5830 5832 5835 5837 5840 5842 5845 5847 5849 5851 5853 5855 5857 5859 5861 5862 5864 5866 5867 5868 5869 5870 5871 5872 5873 5874 5874 5875 5875 5875 5875 5875 5875 5874 5874 5873 5872 5872
5791 5793 5794 5797 5801 5807 5811 5814 5817 5818 5821 5823 5825 5828 5831 5834 5837 5839 5842 5844 5846 5848 5850 5852 5855 5857 5859 5860 5862 5863 5865 5866 5867 5868 5869 5870 5871 5872 5872 5872 5872 5873 5873 5872 5872 5871 5871 5870 5869
5781 5782 5785 5788 5794 5799 5802 5805 5808 5811 5813 5816 5818 5821 5824 5827 5830 5833 5835 5838 5840 5843 5845 5848 5850 5852 5854 5856 5858 5860 5861 5863 5864 5865 5866 5867 5868 5869 5869 5869 5870 5870 5870 5869 5869 5869 5868 5868 5867
5771 5773 5776 5780 5786 5790 5793 5797 5800 5802 5805 5808 5810 5813 5817 5820 5823 5826 5829 5832 5834 5837 5840 5842 5845 5847 5849 5852 5853 5855 5857 5859 5860 5861 5862 5864 5865 5865 5866 5866 5866 5866 5867 5866 5866 5866 5865 5865 5864
5763 5765 5768 5773 5777 5781 5785 5788 5791 5794 5796 5799 5802 5805 5809 5812 5815 5819 5822 5825 5827 5831 5833 5836 5839 5842 5844 5846 5848 5850 5852 5854 5856 5857 5859 5860 5861 5862 5862 5862 5863 5863 5863 5863 5863 5862 5862 5861 5860
5755 5758 5760 5764 5767 5772 5776 5778 5781 5784 5787 5790 5793 5796 5801 5804 5807 5811 5814 5817 5821 5824 5827 5830 5833 5836 5838 5840 5843 5845 5847 5849 5851 5853 5854 5856 5857 5857 5858 5858 5859 5859 5859 5859 5859 5859 5858 5858 5857
5746 5750 5751 5756 5759 5762 5766 5769 5772 5775 5778 5780 5783 5788 5792 5795 5799 5803 5807 5810 5813 5817 5820 5823 5826 5829 5832 5834 5837 5840 5841 5843 5845 5848 5849 5851 5852 5853 5854 5854 5855 5855 5855 5855 5855 5855 5854 5853 5853
5737 5740 5744 5748 5750 5753 5756 5759 5762 5765 5768 5772 5775 5779 5782 5786 5790 5794 5798 5802 5806 5809 5813 5816 5819 5822 5825 5828 5831 5834 5835 5837 5839 5842 5844 5846 5847 5848 5849 5850 5850 5851 5851 5851 5850 5850 5850 5849 5848
5729 5732 5736 5738 5740 5743 5746 5749 5753 5756 5760 5764 5767 5771 5774 5777 5781 5786 5790 5794 5797 5801 5805 5808 5812 5815 5818 5821 5824 5827 5829 5831 5834 5836 5838 5840 5841 5843 5844 5845 5845 5846 5846 5846 5846 5846 5845 5845 5844
5721 5724 5726 5729 5732 5734 5737 5740 5744 5747 5752 5756 5759 5762 5766 5769 5773 5777 5781 5786 5790 5793 5797 5801 5804 5808 5811 5814 5817 5821 5823 5825 5828 5829 5831 5833 5835 5837 5838 5839 5840 5841 5841 5841 5841 5841 5840 5839 5839
5714 5716 5718 5720 5723 5726 5728 5731 5735 5739 5743 5746 5749 5753 5757 5761 5764 5768 5773 5777 5782 5786 5790 5793 5797 5801 5804 5807 5810 5813 5816 5819 5821 5823 5825 5828 5829 5831 5832 5833 5834 5835 5836 5836 5836 5835 5835 5834 5833
5708 5709 5711 5713 5715 5718 5721 5724 5728 5732 5735 5738 5741 5745 5749 5752 5756 5760 5764 5769 5774 5778 5782 5786 5789 5793 5796 5800 5803 5806 5809 5811 5814 5816 5819 5821 5822 5824 5826 5827 5828 5829 5829 5830 5829 5829 5829 5828 5827
5701 5703 5704 5706 5708 5711 5714 5717 5721 5725 5728 5731 5734 5738 5741 5745 5749 5753 5757 5761 5765 5770 5774 5778 5782 5785 5788 5792 5795 5798 5802 5804 5807 5809 5812 5814 5815 5817 5819 5821 5822 5822 5823 5823 5823 5823 5822 5822 5821
5696 5697 5698 5700 5702 5705 5709 5712 5715 5718 5721 5724 5728 5731 5735 5738 5741 5745 5749 5753 5757 5762 5766 5770 5774 5777 5780 5784 5787 5790 5794 5797 5799 5802 5804 5807 5809 5810 5812 5814 5815 5816 5816 5816 5816 5816 5816 5815 5814
5690 5691 5693 5695 5697 5699 5702 5706 5708 5712 5715 5718 5721 5725 5728 5731 5735 5738 5742 5746 5750 5754 5758 5762 5766 5769 5772 5776 5779 5782 5786 5789 5792 5794 5797 5799 5802 5803 5804 5806 5808 5808 5809 5809 5809 5809 5809 5808 5807
5686 5687 5688 5690 5692 5694 5697 5700 5703 5706 5709 5712 5715 5718 5721 5725 5728 5732 5735 5739 5742 5746 5751 5754 5757 5761 5764 5767 5771 5774 5777 5781 5784 5787 5789 5792 5794 5796 5797 5798 5800 5801 5801 5802 5802 5801 5801 5800 5800
5683 5683 5684 5686 5688 5690 5692 5695 5698 5701 5704 5707 5710 5712 5715 5718 5722 5725 5728 5732 5735 5739 5743 5746 5749 5753 5756 5760 5763 5766 5769 5773 5776 5778 5781 5784 5786 5788 5789 5791 5792 5792 5793 5794 5794 5794 5793 5793 5792
5679 5680 5681 5683 5684 5686 5688 5691 5693 5695 5698 5701 5704 5707 5709 5712 5715 5718 5722 5725 5728 5732 5735 5738 5742 5745 5748 5751 5755 5758 5761 5764 5767 5770 5773 5775 5778 5779 5781 5783 5784 5785 5785 5785 5786 5786 5785 5785 5784
5677 5678 5678 5680 5681 5683 5685 5687 5689 5691 5693 5696 5699 5701 5704 5706 5709 5712 5715 5718 5722 5724 5727 5731 5733 5737 5740 5743 5746 5750 5753 5756 5759 5762 5765 5767 5769 5771 5773 5774 5775 5776 5776 5777 5777 5777 5777 5777 5776
5675 5675 5676 5677 5679 5680 5682 5683 5685 5687 5689 5691 5693 5696 5699 5701 5703 5706 5709 5712 5715 5718 5721 5723 5726 5729 5732 5735 5738 5742 5745 5747 5750 5753 5756 5759 5760 5762 5764 5766 5766 5767 5768 5768 5769 5768 5768 5768 5768
5672 5673 5674 5675 5676 5677 5678 5679 5681 5682 5685 5687 5689 5691 5693 5695 5698 5700 5703 5706 5708 5711 5714 5717 5719 5722 5725 5728 5731 5734 5736 5739 5742 5745 5748 5750 5752 5754 5755 5756 5757 5758 5759 5760 5760 5760 5760 5760 5760
5670 5671 5672 5672 5673 5674 5675 5676 5677 5678 5681 5682 5684 5686 5687 5689 5692 5694 5696 5699 5701 5704 5707 5710 5712 5715 5717 5720 5723 5726 5728 5731 5733 5736 5739 5741 5743 5745 5746 5748 5749 5749 5750 5751 5751 5752 5751 5751 5751
5668 5669 5669 5669 5669 5670 5671 5671 5673 5675 5676 5678 5679 5681 5682 5683 5685 5687 5689 5692 5694 5697 5699 5702 5705 5707 5710 5712 5715 5717 5720 5722 5725 5727 5729 5732 5734 5736 5737 5738 5740 5740 5741 5742 5742 5743 5743 5743 5743
5666 5666 5667 5666 5666 5667 5667 5668 5670 5670 5671 5672 5673 5675 5676 5677 5679 5681 5683 5685 5688 5690 5692 5694 5697 5699 5702 5704 5707 5709 5711 5714 5716 5718 5720 5722 5724 5726 5728 5729 5730 5731 5732 5733 5734 5734 5735 5735 5735
5663 5663 5664 5663 5663 5663 5663 5663 5665 5665 5666 5666 5667 5668 5670 5671 5673 5674 5676 5678 5680 5682 5685 5687 5689 5691 5694 5696 5699 5701 5703 5705 5707 5710 5711 5713 5715 5717 5718 5720 5721 5722 5723 5723 5724 5725 5725 5726 5726
5660 5660 5660 5659 5658 5657 5658 5659 5660 5660 5660 5661 5661 5662 5664 5665 5666 5668 5669 5671 5673 5675 5677 5679 5681 5684 5686 5688 5690 5693 5695 5697 5699 5700 5702 5704 5706 5707 5708 5710 5712 5713 5713 5714 5715 5715 5716 5717 5717
5657 5656 5655 5654 5654 5653 5653 5656 5655 5655 5655 5656 5656 5656 5657 5658 5660 5661 5662 5664 5666 5668 5670 5671 5673 5676 5678 5680 5682 5684 5686 5688 5690 5691 5693 5695 5696 5698 5699 5701 5702 5703 5704 5705 5705 5706 5707 5707 5707
5652 5651 5651 5651 5650 5649 5648 5652 5649 5649 5649 5650 5650 5651 5651 5652 5653 5654 5655 5657 5659 5660 5662 5664 5665 5667 5669 5671 5673 5675 5677 5679 5681 5682 5684 5686 5687 5688 5689 5691 5692 5693 5694 5695 5696 5697 5697 5698 5698